STARLINK-32118, 60280

Orbit data source: Space-Track

STARLINK-32118, 60280 is a payload satellite owned by SpaceX/Seattle (US) in LEO that was launched on Sun, 28 Jul 2024 UTC via an FALCON 9 launch vehicle from the Air Force Eastern Test Range (AFETR). Payloads include a variety of satellites, spacecraft, and rockets equipped with specific instruments for various scientific and technological missions. These include communications satellites like Starlink; space stations such as the ISS; scientific satellites like the Hubble; Earth observation satellites from companies like Planet Labs, Umbra, and HawkEye 360; GPS; miniature CubeSats for education and research; and military/defense satellites.

Loading next visibility...
STARLINK-32118 details
Identifier
60280, 2024-132C
Orbit
LEO
Last TLE update16 hours ago
Origin
Flag of USSpaceX/Seattle (US)
ManufacturerSpaceX/Seattle
MissionOperational spacecraft
Bus & MotorSTARLINK V2M, Unknown motor
Mass730 kg wet, ~700 kg dry
Launch date (UTC)
2024-07-28 (5 months ago)
Launch vehicle
FALCON 9
Launch site
Air Force Eastern Test Range (AFETR)
Object type
Payload
Rocket body
Debris
Shape & HBRUnknown
Radar Cross SectionLarge (>1 m²)

Expand to show TLE details & history

TLE from 16 hours ago
0 STARLINK-32118
1 60280U 24132C   24355.88257591  .00001321  00000-0  56758-4 0  9994
2 60280  53.1617 313.7173 0001359 115.3954 244.7188 15.30185236 23612
Epoch: 2024-12-20T21:10Z
Definitive object data (Epoch: 2024-12-20T21:10:54.558Z)
Latitude0.00001°
Longitude-93.95173°
Altitude476.557 km
Speed7.628 km/s
True Right ascension20h 54m 52s
True Declination0° 00' 00"
Sunlit
Object was in daylight at TLE epoch
Visualization TLE readout
Latitude32.86831°
Longitude-68.24678°
Altitude477.196 km
Speed7.632 km/s
Apparent Right ascension23h 17m 30s
Apparent Declination-2° 01' 27"
Sunlit
Object is in daylight
Visualization observer readout
Local Sidereal Time12:04:26
Azimuth18.689° NNE
Elevation-50.638°
Doppler factor1
Orbital elements
Apogee altitude476.447 km
Perigee altitude474.584 km
Semi-major axis6,853.652 km
Eccentricity0.0001359
Inclination53.1617°
RAAN313.7173°
Arg. of periapsis115.3954°
True anomaly244.70472°
Mean anomaly244.7188°
Eccentric anomaly244.71176°
Mean motion3.82525 °/min
BSTAR0.000056758
Orbital period94.11 mins
Loading maneuver chart data...
Loading historical data...
Loading historical data...
Loading historical data...
Loading historical data...
Loading historical data...
Loading historical data...
Loading historical data...

STARLINK-32118 Visibility forecast

Observer location: undefined°, undefined

Span
Click to sort rows by Start time (UTC) header in descending order
Start Az.
Max El. time (UTC)
Max El. Az.
Max El.
End time (UTC)
End Az.
6 mins2024-12-22 00:00:32.085Z227.845° WSW2024-12-22 00:03:32.085Z205.026° SW44.825°2024-12-22 00:06:32.085Z50.666° ENE
4 mins2024-12-22 01:40:32.085Z308.162° NW2024-12-22 01:41:32.085Z327.91° NNW17.429°2024-12-22 01:44:32.085Z23.042° NE
5 mins2024-12-22 06:36:32.085Z317.216° NNW2024-12-22 06:38:32.085Z11.468° NNE43.276°2024-12-22 06:41:32.085Z122.384° SE
|